Altus, OK

8:23 PM CST on December 03, 2016 (GMT -0600)
Altus Municipal

Weather History for KAXS - July, 2013

Change the Weather History Date:

Saturday, July 6, 2013

  Actual Average (KLTS) Record (KLTS)
Temperature  
Mean Temperature 86 °F -  
Max Temperature 100 °F 93 °F 107 °F (1996)
Min Temperature 73 °F 70 °F 67 °F (2007)
Cooling Degree Days 22    
Growing Degree Days 36 (Base 50)    
Moisture  
Dew Point 52 °F    
Average Humidity 31    
Maximum Humidity 53    
Minimum Humidity 16    
Precipitation  
Precipitation 0.00 in - - ()
Sea Level Pressure  
Sea Level Pressure 29.91 in    
Wind  
Wind Speed 14 mph (SSE)    
Max Wind Speed 24 mph    
Max Gust Speed 29 mph    
Visibility 10 miles    
Events      
Averages and records for this station are not official NWS values.
T = Trace of Precipitation, MM = Missing Value Source: NWS Daily Summary

Daily Weather History Graph

Daily Weather History Graph

Search for Another Location

Airport or City:

Trip Planner

Search our weather history database for the weather conditions in past years. The results will help you decide how hot, cold, wet, or windy it might be!

Date:

Astronomy

Jul. 06, 2013 Rise Set
Actual Time 6:30 AM CDT 8:53 PM CDT
Civil Twilight 6:01 AM CDT 9:22 PM CDT
Nautical Twilight 5:25 AM CDT 9:58 PM CDT
Astronomical Twilight 4:45 AM CDT 10:38 PM CDT
Moon 5:15 AM CDT (7/6) 7:38 PM CDT (7/6)
Length of Visible Light 15h 21m
Length of Day
14h 23m
Waning Crescent, 2% of the Moon is Illuminated
Jul 6
Waning Crescent
Jul 8
New
Jul 15
First Quarter
Jul 22
Full
Jul 29
Last Quarter

Hourly Weather History & Observations

Time (CDT) Temp. Heat Index Dew Point Humidity Pressure Visibility Wind Dir Wind Speed Gust Speed Precip Events Conditions
12:15 AM 83.5 °F - 50.5 °F 32% 29.92 in 10.0 mi SE 12.7 mph - N/A   Clear
12:35 AM 82.4 °F - 50.7 °F 33% 29.92 in 10.0 mi SE 13.8 mph - N/A   Clear
12:55 AM 82.0 °F - 51.8 °F 35% 29.92 in 10.0 mi SE 11.5 mph - N/A   Clear
1:15 AM 81.9 °F - 52.7 °F 36% 29.93 in 10.0 mi SE 15.0 mph - N/A   Clear
1:35 AM 81.5 °F 80.8 °F 53.2 °F 38% 29.92 in 10.0 mi SE 16.1 mph - N/A   Clear
1:55 AM 81.1 °F 80.6 °F 53.6 °F 38% 29.92 in 10.0 mi SE 16.1 mph - N/A   Clear
2:15 AM 80.8 °F 80.4 °F 53.4 °F 39% 29.92 in 10.0 mi SSE 17.3 mph - N/A   Clear
2:35 AM 80.6 °F 80.3 °F 53.2 °F 39% 29.92 in 10.0 mi SSE 15.0 mph - N/A   Clear
2:55 AM 79.9 °F - 53.2 °F 40% 29.91 in 10.0 mi SSE 15.0 mph - N/A   Clear
3:15 AM 79.2 °F - 53.6 °F 41% 29.92 in 10.0 mi SSE 12.7 mph - N/A   Clear
3:35 AM 78.6 °F - 53.6 °F 42% 29.92 in 10.0 mi SE 12.7 mph - N/A   Clear
3:55 AM 77.9 °F - 53.6 °F 43% 29.92 in 10.0 mi SE 12.7 mph - N/A   Clear
4:15 AM 77.4 °F - 53.6 °F 44% 29.92 in 10.0 mi SE 12.7 mph - N/A   Clear
4:35 AM 77.0 °F - 53.8 °F 44% 29.92 in 10.0 mi SE 10.4 mph - N/A   Clear
4:55 AM 76.5 °F - 54.0 °F 46% 29.93 in 10.0 mi SE 9.2 mph - N/A   Clear
5:15 AM 75.6 °F - 54.1 °F 47% 29.93 in 10.0 mi SE 9.2 mph - N/A   Clear
5:35 AM 74.8 °F - 54.5 °F 49% 29.93 in 10.0 mi SE 8.1 mph - N/A   Clear
5:55 AM 74.8 °F - 54.7 °F 49% 29.93 in 10.0 mi SE 6.9 mph - N/A   Clear
6:15 AM 74.7 °F - 54.7 °F 50% 29.94 in 10.0 mi SE 6.9 mph - N/A   Clear
6:35 AM 74.3 °F - 54.9 °F 51% 29.94 in 10.0 mi SE 5.8 mph - N/A   Clear
6:55 AM 73.4 °F - 55.2 °F 53% 29.95 in 10.0 mi SE 6.9 mph - N/A   Clear
7:15 AM 74.3 °F - 55.4 °F 52% 29.94 in 10.0 mi SSE 6.9 mph - N/A   Clear
7:35 AM 74.8 °F - 55.6 °F 51% 29.94 in 10.0 mi SE 8.1 mph - N/A   Clear
7:55 AM 75.6 °F - 55.8 °F 50% 29.95 in 10.0 mi SSE 8.1 mph - N/A   Clear
8:15 AM 77.2 °F - 56.3 °F 48% 29.95 in 10.0 mi SE 6.9 mph - N/A   Clear
8:35 AM 79.7 °F - 56.3 °F 44% 29.95 in 10.0 mi SSE 9.2 mph - N/A   Clear
8:55 AM 81.5 °F 81.1 °F 55.4 °F 41% 29.95 in 10.0 mi South 11.5 mph - N/A   Clear
9:15 AM 83.5 °F 82.4 °F 54.9 °F 37% 29.95 in 10.0 mi SSW 15.0 mph - N/A   Clear
9:35 AM 84.4 °F 82.9 °F 53.8 °F 35% 29.95 in 10.0 mi SSW 13.8 mph - N/A   Clear
9:55 AM 84.4 °F 82.9 °F 53.6 °F 35% 29.95 in 10.0 mi SSW 12.7 mph - N/A   Clear
10:15 AM 85.5 °F 83.7 °F 53.4 °F 33% 29.94 in 10.0 mi SSW 15.0 mph - N/A   Clear
10:35 AM 85.3 °F 83.5 °F 53.4 °F 33% 29.94 in 10.0 mi South 15.0 mph - N/A   Clear
10:55 AM 85.5 °F 83.7 °F 53.6 °F 33% 29.94 in 10.0 mi SSW 16.1 mph - N/A   Clear
11:15 AM 86.9 °F 84.9 °F 53.8 °F 32% 29.94 in 10.0 mi SSW 12.7 mph - N/A   Clear
11:35 AM 89.8 °F 87.5 °F 53.6 °F 29% 29.94 in 10.0 mi SW 11.5 mph - N/A   Clear
11:55 AM 89.4 °F 87.1 °F 53.4 °F 29% 29.94 in 10.0 mi SSW 11.5 mph - N/A   Clear
12:15 PM 90.3 °F 88.1 °F 53.6 °F 29% 29.94 in 10.0 mi SW 11.5 mph - N/A   Clear
12:35 PM 90.7 °F 88.3 °F 53.6 °F 28% 29.94 in 10.0 mi South 13.8 mph 18.4 mph N/A   Clear
12:55 PM 93.0 °F 90.6 °F 53.1 °F 26% 29.93 in 10.0 mi SSW 12.7 mph 19.6 mph N/A   Clear
1:15 PM 93.4 °F - 51.4 °F 24% 29.92 in 10.0 mi SSW 11.5 mph 20.7 mph N/A   Clear
1:35 PM 95.7 °F - 49.1 °F 20% 29.92 in 10.0 mi SSW 19.6 mph 24.2 mph N/A   Clear
1:55 PM 95.9 °F - 49.8 °F 21% 29.92 in 10.0 mi South 18.4 mph 26.5 mph N/A   Clear
2:15 PM 97.0 °F - 48.9 °F 19% 29.91 in 10.0 mi SSE 18.4 mph 26.5 mph N/A   Clear
2:35 PM 97.7 °F - 49.1 °F 19% 29.90 in 10.0 mi South 23.0 mph 28.8 mph N/A   Clear
2:55 PM 98.6 °F - 45.5 °F 16% 29.89 in 10.0 mi South 21.9 mph 28.8 mph N/A   Clear
3:15 PM 99.1 °F - 46.2 °F 16% 29.90 in 10.0 mi SSE 23.0 mph 28.8 mph N/A   Clear
3:35 PM 99.5 °F - 47.1 °F 17% 29.89 in 10.0 mi SSE 24.2 mph 27.6 mph N/A   Clear
3:55 PM 99.7 °F - 46.6 °F 16% 29.88 in 10.0 mi SSE 23.0 mph 28.8 mph N/A   Clear
4:15 PM 99.5 °F - 46.6 °F 17% 29.87 in 10.0 mi South 23.0 mph 28.8 mph N/A   Clear
4:35 PM 99.5 °F - 47.1 °F 17% 29.87 in 10.0 mi SSE 23.0 mph 27.6 mph N/A   Clear
4:55 PM 100.2 °F - 46.8 °F 16% 29.87 in 10.0 mi SSE 20.7 mph 26.5 mph N/A   Clear
5:15 PM 99.9 °F - 46.4 °F 16% 29.86 in 10.0 mi SE 17.3 mph 20.7 mph N/A   Clear
5:35 PM 99.9 °F - 46.9 °F 17% 29.85 in 10.0 mi South 17.3 mph 26.5 mph N/A   Clear
5:55 PM 99.5 °F - 47.1 °F 17% 29.85 in 10.0 mi SSE 18.4 mph 27.6 mph N/A   Clear
6:15 PM 97.7 °F - 47.8 °F 18% 29.85 in 10.0 mi SSE 15.0 mph 20.7 mph N/A   Clear
6:35 PM 98.1 °F - 48.2 °F 18% 29.85 in 10.0 mi SSE 18.4 mph 23.0 mph N/A   Clear
6:55 PM 97.7 °F - 48.7 °F 19% 29.85 in 10.0 mi SSE 15.0 mph 24.2 mph N/A   Clear
7:15 PM 97.5 °F - 48.4 °F 19% 29.85 in 10.0 mi SE 15.0 mph 24.2 mph N/A   Clear
7:35 PM 96.8 °F - 48.2 °F 19% 29.85 in 10.0 mi SSE 19.6 mph 23.0 mph N/A   Clear
7:55 PM 96.1 °F - 48.0 °F 19% 29.85 in 10.0 mi SSE 17.3 mph 24.2 mph N/A   Clear
8:15 PM 95.4 °F - 48.4 °F 20% 29.86 in 10.0 mi SSE 16.1 mph - N/A   Clear
8:35 PM 93.9 °F - 50.5 °F 23% 29.87 in 10.0 mi SE 16.1 mph 20.7 mph N/A   Clear
8:55 PM 92.5 °F - 50.9 °F 24% 29.87 in 10.0 mi SE 13.8 mph - N/A   Clear
9:15 PM 91.4 °F - 50.5 °F 25% 29.88 in 10.0 mi SSE 13.8 mph - N/A   Clear
9:35 PM 90.5 °F - 50.0 °F 25% 29.89 in 10.0 mi SE 13.8 mph - N/A   Clear
9:55 PM 89.6 °F - 50.2 °F 26% 29.90 in 10.0 mi SE 13.8 mph - N/A   Clear
10:15 PM 88.9 °F - 50.2 °F 26% 29.91 in 10.0 mi SE 15.0 mph - N/A   Clear
10:35 PM 88.7 °F - 50.5 °F 27% 29.92 in 10.0 mi SE 17.3 mph 20.7 mph N/A   Clear
10:55 PM 87.6 °F - 51.1 °F 28% 29.93 in 10.0 mi SSE 18.4 mph - N/A   Clear
11:15 PM 87.3 °F - 51.4 °F 29% 29.94 in 10.0 mi SSE 17.3 mph - N/A   Clear
11:35 PM 86.2 °F - 51.4 °F 30% 29.94 in 10.0 mi SE 12.7 mph 20.7 mph N/A   Clear
11:55 PM 85.5 °F - 52.3 °F 32% 29.94 in 10.0 mi SE 15.0 mph - N/A   Clear